CZ-3B DEB, 40814

Orbit data source: Space-Track

CZ-3B DEB, 40814 is space debris in HEO originally from a launch on Sat, 04 Sep 2010 UTC launched from the Xichang Space Center, China (XSC). Debris objects in space refer to the collection of defunct objects orbiting the Earth. Examples of debris include non-operational satellites, rocket bodies, and fragments generated from explosions, collisions, or faulty payload assembly.

Loading next visibility...
Identifier
40814, 2010-042X
Orbit
HEO
Country
Flag of CNCN / PRC
Related business
Manufacturer
CALT
Mission
Spacecraft
Bus & Motor
Unknown
Mass
Unknown
Launch date (UTC)
2010-09-04 (16 years ago)
Launch vehicle
Unknown
Launch site
Xichang Space Center, China (XSC)
Object type
Payload
Rocket body
Debris
Shape & HBR
Unknown shape, 0.1 m
Radar Cross Section
Medium (>0.1 m² and <1 m²)

Expand to show TLE details & history
Last TLE update: 9 hours ago

TLE from 9 hours ago
0 CZ-3B DEB
1 40814U 10042X   26072.45110673 -.00000140  00000-0 -90686-2 0  9996
2 40814  25.9213 180.9540 7377997 120.3949 330.9943  1.90414065 78944
Epoch: 2026-03-13T10:49Z
TLE epoch observation values (Epoch: 2026-03-13T10:49:35.621Z)
Latitude
0.00002°
Longitude
-152.6595°
Altitude
13,656.582 km
Speed
5.029 km/s
True Right ascension
12h 03m 18s
True Declination
0° 00' 00"
Sunlit
Object was in full shadow at epoch
Visualization orbit readout
Latitude
Unknown
Longitude
Unknown
Altitude
Unknown
Speed
Unknown
Apparent Right ascension
Unknown
Apparent Declination
Unknown
Sunlit
N/A
Visualization observer readout
Local Sidereal Time
00:12:27
Azimuth
Unknown
Elevation
Unknown
Doppler factor
Unknown
Orbital elements
Apogee altitude
41,410.85 km
Perigee altitude
832.295 km
Semi-major axis
27,499.709 km
Eccentricity
0.7378
Inclination
25.9213°
RAAN
180.954°
Arg. of periapsis
120.3949°
True anomaly
239.61612°
Mean anomaly
330.9943°
Eccentric anomaly
291.72373°
Mean motion
0.47594 °/min
Orbital period
756.4 mins
BSTAR
-0.0090686
Loading maneuver chart data...
Computing Atmospheric mass density...
Loading historical data...
Loading historical data...
Loading historical data...
Loading historical data...
Loading historical data...
Loading historical data...
Loading historical data...

Documentation

Showing up to 5 results
|